Regional Weather Roundup
Issued by NWS Memphis, TN

Home | Current Version | Previous Version | Text Only | Print | Product List | Glossary On
Versions: 1 2 3 4 5 6 7 8 9 10 11 12 13 14 15 16 17 18 19 20 21 22 23 24 25 26 27 28 29 30 31 32 33 34 35 36 37 38 39 40 41 42 43 44 45 46 47 48 49 50
000
ASUS44 KMEG 271900
RWRMEG
MEMPHIS CWA HOURLY WEATHER ROUNDUP
NATIONAL WEATHER SERVICE MEMPHIS TN
100 PM CST TUE JAN 27 2015

...WEST TENNESSEE...

CITY           SKY/WX    TMP DP  RH WIND       PRES   REMARKS
MEMPHIS INTL   MOSUNNY   56  35  45 N7        30.12F
NWS MEMPHIS      N/A     53 N/A N/A MISG        N/A
JACKSON        MOSUNNY   51  32  48 N9        30.11F
LEXINGTON      MOSUNNY   48  30  49 N13       30.08S
SAVANNAH         N/A     50  32  50 NW10      30.09F
DYERSBURG      MOSUNNY   48  27  43 N12       30.14F
UNION CITY     MOSUNNY   43  34  70 NW13      30.12F
PARIS          MOSUNNY   43  30  61 NW9       30.11S


...EASTERN ARKANSAS...

CITY           SKY/WX    TMP DP  RH WIND       PRES   REMARKS
JONESBORO      MOSUNNY   52  38  58 NE9       30.13F
WEST MEMPHIS   MOSUNNY   53  39  59 N9        30.12F
BATESVILLE     SUNNY     59  34  38 N5        30.14F
WALNUT RIDGE   SUNNY     52  36  54 NE6       30.14F
BLYTHEVILLE    MOSUNNY   52  38  58 N15       30.14F
SEARCY         SUNNY     60  34  37 N6        30.15F
STUTTGART      SUNNY     57  36  44 N8        30.15F
PINE BLUFF     SUNNY     60  36  40 NE8       30.14F
MONTICELLO     SUNNY     63  34  33 VRB7      30.12F


...NORTH MISSISSIPPI...

CITY           SKY/WX    TMP DP  RH WIND       PRES   REMARKS
TUPELO         SUNNY     56  33  42 N10       30.08F
OLIVE BRANCH   SUNNY     52  36  54 N12       30.12F
TUNICA         SUNNY     54  37  54 N12G17    30.13F
GREENWOOD      SUNNY     60  37  42 N8        30.11F
STARKVILLE     FAIR      59  36  41 N7G16     30.07F
GOLDEN TRIANGL SUNNY     59  39  47 NW8G16    30.07F


...SOUTHEAST MISSOURI...

CITY           SKY/WX    TMP DP  RH WIND       PRES   REMARKS
WEST PLAINS    SUNNY     53  29  39 NW6       30.13F
POPLAR BLUFF   MOSUNNY   49  34  56 VRB5      30.13F
CAPE GIRARDEAU CLOUDY    45  33  63 N10       30.14F


...NORTHWEST ALABAMA...

CITY           SKY/WX    TMP DP  RH WIND       PRES   REMARKS
MUSCLE SHOALS  SUNNY     53  31  42 NW12      30.07F


...MIDDLE TENNESSEE...

CITY           SKY/WX    TMP DP  RH WIND       PRES   REMARKS
NASHVILLE      CLOUDY    39  31  72 N10       30.09R WCI  32
CLARKSVILLE    CLOUDY    39  31  72 N12       30.10F WCI  32


...WESTERN KENTUCKY...

CITY           SKY/WX    TMP DP  RH WIND       PRES   REMARKS
PADUCAH        CLOUDY    45  30  55 N8        30.12F
FORT CAMPBELL  CLOUDY    38  31  74 NW8       30.10S WCI  32


...CENTRAL ARKANSAS...

CITY           SKY/WX    TMP DP  RH WIND       PRES   REMARKS
LITTLE ROCK    SUNNY     65  29  25 NE10      30.13F


SKY/WX REPORTED AS FAIR MEANS FEW OR NO CLOUDS BELOW
12 THOUSAND FEET.



USA.gov is the U.S. government's official web portal to all federal, state and local government web resources and services.